Location: Unspecified
(48.7670°N, 0.0000°E)
Time: 10:08:13
(UTC+00:00)

Altair - Pass Details

Date: 30 June 2019
Orbit: 1501 x 1683 km, 47.2° (Epoch: 24 August)

Event Time Altitude Azimuth Distance (km) Brightness Sun altitude
Rises 21:16:42 0° 276° (W) 4,726 10.8 -9.0°
Reaches altitude 10° 21:19:43 10° 276° (W) 3,765 10.2 -9.3°
Maximum altitude 21:29:18 78° 192° (SSW) 1,646 7.6 -10.3°
Drops below altitude 10° 21:39:16 10° 108° (ESE) 3,901 9.2 -11.2°
Enters shadow 21:41:58 - 107° (ESE) 4,754 9.6 -11.4°
Sets 21:42:27 0° 107° (ESE) 4,904 - -11.5°
